Regional Weather Roundup
Issued by NWS

Home | Current Version | Previous Version | Graphics & Text | Print | Product List | Glossary On
Versions: 1 2 3 4 5 6 7 8 9 10 11 12 13 14 15 16 17 18 19 20 21 22 23 24 25 26 27 28 29 30 31 32 33 34 35 36 37 38 39 40 41 42 43 44 45 46 47 48 49 50
000
ASUS43 KBIS 251202
RWRND

NORTH DAKOTA REGIONAL WEATHER ROUNDUP
NATIONAL WEATHER SERVICE BISMARCK ND
700 AM CDT SAT MAR 25 2017

NOTE: "FAIR" INDICATES FEW OR NO CLOUDS BELOW 12,000 FEET WITH NO
SIGNIFICANT WEATHER AND/OR OBSTRUCTIONS TO VISIBILITY.


NDZ001>003-009>011-017-251300-
NORTHWEST NORTH DAKOTA

CITY           SKY/WX    TMP DP  RH WIND       PRES   REMARKS
WILLISTON      FAIR      43  33  68 S12       29.84S
6HR MIN TEMP:  42; 6HR MAX TEMP:  43;

MINOT          FAIR      32  30  92 SE12      29.96F
MINOT AFB      CLOUDY    32  30  93 SE12      29.95F
$$

NDZ018>021-031>035-040>046-251300-
SOUTHWEST NORTH DAKOTA

CITY           SKY/WX    TMP DP  RH WIND       PRES   REMARKS
BISMARCK       CLOUDY    32  31  96 SE14      30.04S FOG
6HR MIN TEMP:  29; 6HR MAX TEMP:  32;

DICKINSON      FAIR      33  29  85 S20       29.87S
GARRISON         N/A     30  29  96 SE15      29.96F WCI  19
6HR MIN TEMP:  29; 6HR MAX TEMP:  30;

HETTINGER ARPT CLOUDY    33  29  85 SE10      29.93F
$$

NDZ004>008-012>016-024-026-027-054-251300-
NORTHEAST NORTH DAKOTA

CITY           SKY/WX    TMP DP  RH WIND       PRES   REMARKS
GRAND FORKS    CLOUDY    30  29  96 SE9       30.16S
GRND FRKS AFB  CLOUDY    25  25  99 S5        30.15S WCI  19
DEVILS LAKE    FAIR      27  25  92 SE13      30.08F WCI  16
$$

NDZ022-023-025-028>030-036>039-047>053-251300-
SOUTHEAST NORTH DAKOTA

CITY           SKY/WX    TMP DP  RH WIND       PRES   REMARKS
FARGO          CLEAR     30  27  88 SE5       30.18R
6HR MIN TEMP:  26; 6HR MAX TEMP:  30;

JAMESTOWN      MOCLDY    27  25  92 SE8       30.10F WCI  19
$$




USA.gov is the U.S. government's official web portal to all federal, state and local government web resources and services.